Location: Alafon
(8.4500°N, 4.2333°E)
Time: 21:43:15
(UTC+00:00)

Vanguard 2 - Pass Details

Date: 04 August 2021
Orbit: 553 x 2937 km, 32.9° (Epoch: 26 September)

Event Time Altitude Azimuth Distance (km) Brightness Sun altitude
Rises 00:47:35 0° 248° (WSW) 4,037 - -60.6°
Reaches altitude 10° 00:51:02 10° 254° (WSW) 2,718 - -60.1°
Maximum altitude 00:56:46 42° 324° (NW) 1,010 - -59.4°
Drops below altitude 10° 01:00:51 10° 37° (NE) 1,934 - -58.8°
Sets 01:02:57 0° 45° (NE) 2,749 - -58.5°
